Tiempo cada hora Allmend

Hoy, 30 Julio, Viernes

Tiempo Temperatura Precipitaciones Viento Presión Humedad
00:00 +15°C° 0.1 mm 1 mps 681 mmHg 87%
01:00 +15°C° 0.1 mm 1 mps 681 mmHg 86%
02:00 +15°C° 0.1 mm 1 mps 681 mmHg 86%
03:00 +15°C° 0.1 mm 1 mps 681 mmHg 87%
04:00 +14°C° 0.1 mm 1 mps 681 mmHg 87%
05:00 +15°C° 0 mm 1 mps 681 mmHg 85%
06:00 +18°C° 0 mm 1 mps 681 mmHg 83%
07:00 +19°C° 0 mm 1 mps 681 mmHg 80%
08:00 +20°C° 0 mm 1 mps 681 mmHg 73%
09:00 +22°C° 0 mm 1 mps 682 mmHg 66%
10:00 +24°C° 0 mm 1 mps 682 mmHg 59%
11:00 +25°C° 0.1 mm 1 mps 682 mmHg 58%
12:00 +25°C° 0.1 mm 2 mps 681 mmHg 57%
13:00 +26°C° 0.1 mm 2 mps 681 mmHg 56%
14:00 +25°C° 0.9 mm 2 mps 681 mmHg 64%
15:00 +24°C° 0.9 mm 2 mps 681 mmHg 72%
16:00 +23°C° 0.9 mm 2 mps 681 mmHg 80%
17:00 +21°C° 1.8 mm 2 mps 681 mmHg 83%
18:00 +21°C° 1.8 mm 1 mps 681 mmHg 87%
19:00 +20°C° 1.8 mm 1 mps 680 mmHg 90%
20:00 +19°C° 3.5 mm 1 mps 681 mmHg 93%
21:00 +18°C° 3.5 mm 1 mps 681 mmHg 95%
22:00 +16°C° 3.5 mm 1 mps 681 mmHg 97%
23:00 +16°C° 2.4 mm 1 mps 681 mmHg 97%

Mañana, 31 Julio, Sábado

Tiempo Temperatura Precipitaciones Viento Presión Humedad
00:00 +16°C° 2.4 mm 1 mps 681 mmHg 97%
01:00 +16°C° 2.4 mm 1 mps 681 mmHg 97%
02:00 +15°C° 0.1 mm 1 mps 681 mmHg 96%
03:00 +15°C° 0.1 mm 1 mps 680 mmHg 96%
04:00 +14°C° 0.1 mm 1 mps 680 mmHg 96%
05:00 +14°C° 0 mm 0 mps 680 mmHg 96%
06:00 +14°C° 0 mm 0 mps 680 mmHg 95%
07:00 +15°C° 0 mm 0 mps 680 mmHg 95%
08:00 +15°C° 0.2 mm 0 mps 680 mmHg 92%
09:00 +18°C° 0.2 mm 1 mps 680 mmHg 88%
10:00 +19°C° 0.2 mm 1 mps 681 mmHg 85%
11:00 +20°C° 0.1 mm 1 mps 680 mmHg 81%
12:00 +20°C° 0.1 mm 1 mps 680 mmHg 77%
13:00 +21°C° 0.1 mm 1 mps 680 mmHg 72%
14:00 +21°C° 0.2 mm 1 mps 680 mmHg 75%
15:00 +19°C° 0.2 mm 2 mps 680 mmHg 78%
16:00 +19°C° 0.2 mm 2 mps 680 mmHg 81%
17:00 +18°C° 1 mm 2 mps 679 mmHg 86%
18:00 +18°C° 1 mm 1 mps 679 mmHg 90%
19:00 +16°C° 1 mm 1 mps 679 mmHg 95%
20:00 +15°C° 2.6 mm 1 mps 679 mmHg 96%
21:00 +15°C° 2.6 mm 1 mps 679 mmHg 97%
22:00 +14°C° 2.6 mm 1 mps 679 mmHg 98%
23:00 +14°C° 3.9 mm 1 mps 679 mmHg 98%

Pasado mañana, 1 Agosto, Domingo

Tiempo Temperatura Precipitaciones Viento Presión Humedad
00:00 +13°C° 3.9 mm 1 mps 679 mmHg 98%
01:00 +13°C° 3.9 mm 1 mps 679 mmHg 99%
02:00 +13°C° 1.9 mm 1 mps 679 mmHg 98%
03:00 +12°C° 1.9 mm 0 mps 678 mmHg 98%
04:00 +12°C° 1.9 mm 0 mps 678 mmHg 97%
05:00 +12°C° 0.5 mm 0 mps 678 mmHg 97%
06:00 +12°C° 0.5 mm 0 mps 679 mmHg 97%
07:00 +12°C° 0.5 mm 0 mps 679 mmHg 96%
08:00 +12°C° 0.1 mm 0 mps 679 mmHg 96%
09:00 +12°C° 0.1 mm 0 mps 679 mmHg 95%
10:00 +12°C° 0.1 mm 0 mps 679 mmHg 95%
11:00 +13°C° 0.2 mm 0 mps 679 mmHg 94%
12:00 +13°C° 0.2 mm 0 mps 680 mmHg 93%
13:00 +13°C° 0.2 mm 0 mps 680 mmHg 92%
14:00 +14°C° 0.4 mm 1 mps 680 mmHg 91%
15:00 +15°C° 0.4 mm 1 mps 680 mmHg 91%
16:00 +15°C° 0.4 mm 1 mps 680 mmHg 90%
17:00 +15°C° 0.8 mm 1 mps 680 mmHg 91%
18:00 +14°C° 0.8 mm 1 mps 680 mmHg 93%
19:00 +14°C° 0.8 mm 1 mps 680 mmHg 94%
20:00 +13°C° 0.4 mm 1 mps 681 mmHg 94%
21:00 +13°C° 0.4 mm 1 mps 681 mmHg 95%
22:00 +12°C° 0.4 mm 1 mps 681 mmHg 95%
23:00 +12°C° 0.2 mm 1 mps 681 mmHg 95%

2 Agosto, Lunes

Tiempo Temperatura Precipitaciones Viento Presión Humedad
00:00 +12°C° 0.2 mm 1 mps 681 mmHg 95%
01:00 +12°C° 0.2 mm 1 mps 681 mmHg 95%
02:00 +11°C° 0.1 mm 1 mps 681 mmHg 95%
03:00 +11°C° 0.1 mm 1 mps 681 mmHg 95%
04:00 +11°C° 0.1 mm 1 mps 681 mmHg 95%
05:00 +11°C° 0.1 mm 0 mps 681 mmHg 95%
06:00 +11°C° 0.1 mm 0 mps 681 mmHg 95%
07:00 +12°C° 0.1 mm 0 mps 682 mmHg 94%
08:00 +14°C° 0.3 mm 1 mps 682 mmHg 89%
09:00 +15°C° 0.3 mm 1 mps 682 mmHg 85%
10:00 +16°C° 0.3 mm 1 mps 683 mmHg 80%
11:00 +16°C° 0.3 mm 1 mps 683 mmHg 75%
12:00 +18°C° 0.3 mm 1 mps 683 mmHg 70%
13:00 +18°C° 0.3 mm 2 mps 683 mmHg 64%
14:00 +18°C° 0.2 mm 2 mps 683 mmHg 65%
15:00 +18°C° 0.2 mm 2 mps 683 mmHg 65%
16:00 +18°C° 0.2 mm 2 mps 683 mmHg 66%
17:00 +18°C° 0.1 mm 1 mps 683 mmHg 72%
18:00 +18°C° 0.1 mm 1 mps 683 mmHg 79%
19:00 +15°C° 0.1 mm 0 mps 683 mmHg 85%
20:00 +13°C° 0 mm 0 mps 683 mmHg 87%
21:00 +13°C° 0 mm 1 mps 683 mmHg 89%
22:00 +12°C° 0 mm 1 mps 683 mmHg 92%
23:00 +12°C° 0 mm 1 mps 683 mmHg 91%

3 Agosto, Martes

Tiempo Temperatura Precipitaciones Viento Presión Humedad
00:00 +11°C° 0 mm 1 mps 682 mmHg 91%
01:00 +11°C° 0 mm 1 mps 682 mmHg 91%
02:00 +11°C° 0 mm 1 mps 682 mmHg 91%
03:00 +11°C° 0 mm 1 mps 682 mmHg 91%
04:00 +11°C° 0 mm 1 mps 682 mmHg 90%
05:00 +12°C° 0 mm 1 mps 682 mmHg 88%
06:00 +13°C° 0 mm 1 mps 682 mmHg 86%
07:00 +14°C° 0 mm 1 mps 682 mmHg 83%
08:00 +16°C° 0 mm 1 mps 682 mmHg 75%
09:00 +19°C° 0 mm 1 mps 682 mmHg 67%
10:00 +20°C° 0 mm 1 mps 682 mmHg 59%
11:00 +18°C° 0.7 mm 2 mps 682 mmHg 70%
12:00 +17°C° 0.7 mm 3 mps 682 mmHg 80%
13:00 +14°C° 0.7 mm 3 mps 682 mmHg 91%
14:00 +13°C° 3 mm 3 mps 682 mmHg 92%
15:00 +14°C° 3 mm 2 mps 682 mmHg 93%
16:00 +13°C° 3 mm 1 mps 683 mmHg 94%
17:00 +13°C° 0.6 mm 1 mps 683 mmHg 93%
18:00 +13°C° 0.6 mm 1 mps 683 mmHg 93%
19:00 +13°C° 0.6 mm 1 mps 683 mmHg 93%
20:00 +12°C° 0.1 mm 1 mps 683 mmHg 93%
21:00 +12°C° 0.1 mm 1 mps 683 mmHg 92%
22:00 +11°C° 0.1 mm 1 mps 684 mmHg 92%
23:00 +11°C° 0 mm 1 mps 683 mmHg 92%

4 Agosto, Miércoles

Tiempo Temperatura Precipitaciones Viento Presión Humedad
00:00 +10°C° 0 mm 1 mps 683 mmHg 93%
01:00 +10°C° 0 mm 1 mps 683 mmHg 93%
02:00 +10°C° 0 mm 1 mps 683 mmHg 93%
03:00 +10°C° 0 mm 1 mps 683 mmHg 92%
04:00 +9°C° 0 mm 1 mps 682 mmHg 92%
05:00 +10°C° 0 mm 1 mps 682 mmHg 91%
06:00 +11°C° 0 mm 1 mps 683 mmHg 89%
07:00 +11°C° 0 mm 0 mps 683 mmHg 88%
08:00 +12°C° 0 mm 0 mps 683 mmHg 85%
09:00 +13°C° 0 mm 0 mps 683 mmHg 82%
10:00 +14°C° 0 mm 0 mps 683 mmHg 79%
11:00 +16°C° 0.1 mm 1 mps 683 mmHg 73%
12:00 +18°C° 0.1 mm 1 mps 683 mmHg 66%
13:00 +18°C° 0.1 mm 2 mps 683 mmHg 60%
14:00 +19°C° 0.1 mm 1 mps 683 mmHg 64%
15:00 +19°C° 0.1 mm 1 mps 683 mmHg 67%
16:00 +18°C° 0.1 mm 1 mps 683 mmHg 71%
17:00 +18°C° 0.1 mm 1 mps 683 mmHg 76%
18:00 +15°C° 0.1 mm 0 mps 683 mmHg 80%
19:00 +14°C° 0.1 mm 0 mps 682 mmHg 84%
20:00 +13°C° 0 mm 0 mps 682 mmHg 87%
21:00 +13°C° 0 mm 1 mps 682 mmHg 89%
22:00 +11°C° 0 mm 1 mps 682 mmHg 91%
23:00 +11°C° 0 mm 1 mps 682 mmHg 91%
Mostrar más

Necesitamos Su Consentimiento

Meteoprog y nuestros Proveedores de Servicios pueden almacenar y acceder a sus datos personales como cookies, identificadores de dispositivo u otras tecnologías similares de su dispositivo y procesar dichos datos para personalizar contenido y anuncios, además de ofrecer funciones de redes sociales y analizar el tráfico.

  • Almacenar y/o acceder a información en su dispositivo

    Se puede almacenar o acceder a cookies, identificadores de dispositivo u otra información de su dispositivo para los fines anteriormente indicados.

  • Anuncios y contenido personalizados, medición de anuncios y contenido, percepciones del público, y desarrollo de productos

    Los anuncios y el contenido pueden personalizarse en base a su perfil. Se pueden añadir más datos para personalizar mejor los anuncios y contenidos. Se puede medir el rendimiento de los anuncios y contenidos. Se puede obtener la percepción sobre el público que ha visto los anuncios y contenidos. Dichos datos pueden usarse para desarrollar o mejorar la experiencia del usuario, sistemas y software.

Al hacer clic en ‘Estoy De Acuerdo’ usted permitirá el uso de las cookies, identificadores de dispositivo, balizas web u otras tecnologías similares indicadas. Su configuración puede cambiarse desde el navegador de su dispositivo.

Para ciertos fines, los intereses legítimos pueden ser considerados por encima del consentimiento. Puede leer más sobre ello en nuestra Política de Privacidad y Cookies.